When you browse on this site, cookies collect data to enhance your experience and personalize the content and advertising you see.
Visit our Privacy Policy to learn more. By continuing to use the site, you agree to this use of cookies and data.
  • Em Portugal
  • Lista de países
  • Para 7 dias
  • Temperatura da água
  • Mapas de satélite
  • Mapa do tempo
  • Widgets de tempo
  • user-avatar
    Iniciar Sessão

    Previsão horária em Aksel

    Hoje, 26 Junho, Quarta-feira

    Tempo Temperatura Precipitação Vento Pressão Humidade
    00:00 +12°C° 0 mm 2 m/s 754 mmHg 89%
    01:00 +12°C° 0 mm 2 m/s 754 mmHg 90%
    02:00 +10°C° 0 mm 2 m/s 754 mmHg 91%
    03:00 +10°C° 0 mm 2 m/s 754 mmHg 92%
    04:00 +12°C° 0 mm 2 m/s 754 mmHg 88%
    05:00 +13°C° 0 mm 2 m/s 754 mmHg 84%
    06:00 +13°C° 0 mm 2 m/s 754 mmHg 79%
    07:00 +14°C° 0 mm 3 m/s 754 mmHg 71%
    08:00 +16°C° 0 mm 3 m/s 754 mmHg 63%
    09:00 +18°C° 0 mm 4 m/s 754 mmHg 55%
    10:00 +18°C° 0 mm 4 m/s 754 mmHg 52%
    11:00 +19°C° 0 mm 3 m/s 753 mmHg 49%
    12:00 +20°C° 0 mm 3 m/s 753 mmHg 46%
    13:00 +20°C° 0 mm 3 m/s 753 mmHg 45%
    14:00 +21°C° 0 mm 2 m/s 752 mmHg 44%
    15:00 +21°C° 0 mm 2 m/s 752 mmHg 44%
    16:00 +20°C° 0 mm 2 m/s 751 mmHg 51%
    17:00 +19°C° 0 mm 2 m/s 751 mmHg 58%
    18:00 +18°C° 0 mm 2 m/s 750 mmHg 66%
    19:00 +17°C° 0.6 mm 2 m/s 749 mmHg 76%
    20:00 +15°C° 0.6 mm 1 m/s 749 mmHg 86%
    21:00 +14°C° 0.6 mm 1 m/s 748 mmHg 95%
    22:00 +14°C° 2 mm 1 m/s 748 mmHg 96%
    23:00 +14°C° 2 mm 2 m/s 747 mmHg 97%

    Amanhã, 27 Junho, Quinta-feira

    Tempo Temperatura Precipitação Vento Pressão Humidade
    00:00 +14°C° 2 mm 2 m/s 746 mmHg 98%
    01:00 +14°C° 1 mm 2 m/s 746 mmHg 98%
    02:00 +13°C° 1 mm 2 m/s 746 mmHg 98%
    03:00 +13°C° 1 mm 2 m/s 745 mmHg 98%
    04:00 +14°C° 0.1 mm 2 m/s 745 mmHg 97%
    05:00 +14°C° 0.1 mm 2 m/s 745 mmHg 96%
    06:00 +14°C° 0.1 mm 2 m/s 744 mmHg 95%
    07:00 +15°C° 0 mm 2 m/s 744 mmHg 89%
    08:00 +16°C° 0 mm 2 m/s 744 mmHg 83%
    09:00 +17°C° 0 mm 2 m/s 744 mmHg 77%
    10:00 +18°C° 0 mm 2 m/s 744 mmHg 70%
    11:00 +19°C° 0 mm 2 m/s 743 mmHg 63%
    12:00 +20°C° 0 mm 2 m/s 743 mmHg 56%
    13:00 +21°C° 0 mm 2 m/s 743 mmHg 55%
    14:00 +21°C° 0 mm 2 m/s 742 mmHg 54%
    15:00 +21°C° 0 mm 2 m/s 742 mmHg 53%
    16:00 +20°C° 0 mm 2 m/s 742 mmHg 57%
    17:00 +20°C° 0 mm 3 m/s 741 mmHg 61%
    18:00 +19°C° 0 mm 3 m/s 741 mmHg 65%
    19:00 +18°C° 0 mm 3 m/s 740 mmHg 69%
    20:00 +17°C° 0 mm 4 m/s 740 mmHg 73%
    21:00 +15°C° 0 mm 4 m/s 739 mmHg 77%
    22:00 +15°C° 0.1 mm 5 m/s 738 mmHg 79%
    23:00 +14°C° 0.1 mm 5 m/s 737 mmHg 82%

    Depois de amanhã, 28 Junho, Sexta-feira

    Tempo Temperatura Precipitação Vento Pressão Humidade
    00:00 +14°C° 0.1 mm 6 m/s 737 mmHg 84%
    01:00 +13°C° 1.1 mm 6 m/s 736 mmHg 88%
    02:00 +11°C° 1.1 mm 7 m/s 735 mmHg 91%
    03:00 +11°C° 1.1 mm 7 m/s 734 mmHg 95%
    04:00 +11°C° 3.8 mm 8 m/s 733 mmHg 96%
    05:00 +11°C° 3.8 mm 8 m/s 732 mmHg 96%
    06:00 +11°C° 3.8 mm 8 m/s 732 mmHg 97%
    07:00 +12°C° 3.6 mm 8 m/s 731 mmHg 97%
    08:00 +12°C° 3.6 mm 7 m/s 731 mmHg 97%
    09:00 +14°C° 3.6 mm 6 m/s 730 mmHg 98%
    10:00 +15°C° 0.8 mm 6 m/s 730 mmHg 97%
    11:00 +17°C° 0.8 mm 6 m/s 730 mmHg 96%
    12:00 +19°C° 0.8 mm 5 m/s 730 mmHg 95%
    13:00 +19°C° 1.1 mm 5 m/s 730 mmHg 93%
    14:00 +20°C° 1.1 mm 6 m/s 730 mmHg 91%
    15:00 +21°C° 1.1 mm 6 m/s 730 mmHg 89%
    16:00 +21°C° 1 mm 5 m/s 730 mmHg 89%
    17:00 +20°C° 1 mm 5 m/s 729 mmHg 90%
    18:00 +19°C° 1 mm 5 m/s 729 mmHg 90%
    19:00 +18°C° 0.1 mm 4 m/s 730 mmHg 92%
    20:00 +17°C° 0.1 mm 4 m/s 730 mmHg 93%
    21:00 +16°C° 0.1 mm 3 m/s 730 mmHg 95%
    22:00 +14°C° 0 mm 3 m/s 730 mmHg 95%
    23:00 +13°C° 0 mm 3 m/s 730 mmHg 96%

    29 Junho, Sábado

    Tempo Temperatura Precipitação Vento Pressão Humidade
    00:00 +13°C° 0 mm 3 m/s 730 mmHg 97%
    01:00 +12°C° 0 mm 3 m/s 730 mmHg 97%
    02:00 +12°C° 0 mm 3 m/s 730 mmHg 97%
    03:00 +12°C° 0 mm 3 m/s 730 mmHg 97%
    04:00 +12°C° 0.1 mm 4 m/s 730 mmHg 95%
    05:00 +12°C° 0.1 mm 5 m/s 730 mmHg 94%
    06:00 +11°C° 0.1 mm 6 m/s 730 mmHg 92%
    07:00 +11°C° 0 mm 7 m/s 731 mmHg 89%
    08:00 +12°C° 0 mm 7 m/s 731 mmHg 86%
    09:00 +12°C° 0 mm 7 m/s 731 mmHg 83%
    10:00 +14°C° 0 mm 7 m/s 732 mmHg 81%
    11:00 +14°C° 0 mm 7 m/s 733 mmHg 79%
    12:00 +14°C° 0 mm 7 m/s 733 mmHg 77%
    13:00 +15°C° 0.1 mm 6 m/s 734 mmHg 76%
    14:00 +15°C° 0.1 mm 6 m/s 734 mmHg 75%
    15:00 +16°C° 0.1 mm 6 m/s 735 mmHg 75%
    16:00 +15°C° 0.1 mm 6 m/s 735 mmHg 76%
    17:00 +15°C° 0.1 mm 5 m/s 735 mmHg 78%
    18:00 +14°C° 0.1 mm 5 m/s 736 mmHg 80%
    19:00 +13°C° 0 mm 4 m/s 736 mmHg 83%
    20:00 +12°C° 0 mm 3 m/s 737 mmHg 86%
    21:00 +11°C° 0 mm 3 m/s 737 mmHg 89%
    22:00 +10°C° 0 mm 3 m/s 737 mmHg 92%
    23:00 +10°C° 0 mm 3 m/s 738 mmHg 94%

    30 Junho, Domingo

    Tempo Temperatura Precipitação Vento Pressão Humidade
    00:00 +9°C° 0 mm 2 m/s 738 mmHg 97%
    01:00 +8°C° 0 mm 2 m/s 738 mmHg 97%
    02:00 +8°C° 0 mm 2 m/s 739 mmHg 98%
    03:00 +8°C° 0 mm 2 m/s 739 mmHg 98%
    04:00 +8°C° 0 mm 2 m/s 739 mmHg 96%
    05:00 +9°C° 0 mm 2 m/s 739 mmHg 94%
    06:00 +9°C° 0 mm 2 m/s 740 mmHg 93%
    07:00 +12°C° 0 mm 2 m/s 740 mmHg 87%
    08:00 +12°C° 0 mm 3 m/s 740 mmHg 82%
    09:00 +13°C° 0 mm 3 m/s 741 mmHg 77%
    10:00 +13°C° 0 mm 3 m/s 741 mmHg 75%
    11:00 +14°C° 0 mm 3 m/s 741 mmHg 73%
    12:00 +14°C° 0 mm 3 m/s 742 mmHg 72%
    13:00 +16°C° 0 mm 2 m/s 742 mmHg 70%
    14:00 +16°C° 0 mm 2 m/s 742 mmHg 69%
    15:00 +16°C° 0 mm 2 m/s 742 mmHg 67%
    16:00 +16°C° 0.1 mm 2 m/s 743 mmHg 71%
    17:00 +16°C° 0.1 mm 1 m/s 743 mmHg 74%
    18:00 +16°C° 0.1 mm 1 m/s 743 mmHg 78%
    19:00 +14°C° 0 mm 1 m/s 744 mmHg 82%
    20:00 +13°C° 0 mm 1 m/s 744 mmHg 87%
    21:00 +11°C° 0 mm 1 m/s 744 mmHg 91%
    22:00 +11°C° 0 mm 1 m/s 745 mmHg 92%
    23:00 +10°C° 0 mm 1 m/s 745 mmHg 93%

    1 Julho, Segunda-feira

    Tempo Temperatura Precipitação Vento Pressão Humidade
    00:00 +10°C° 0 mm 1 m/s 745 mmHg 94%
    01:00 +10°C° 0 mm 1 m/s 745 mmHg 94%
    02:00 +9°C° 0 mm 1 m/s 746 mmHg 94%
    03:00 +8°C° 0 mm 0 m/s 746 mmHg 94%
    04:00 +9°C° 0 mm 0 m/s 746 mmHg 93%
    05:00 +10°C° 0 mm 0 m/s 746 mmHg 91%
    06:00 +12°C° 0 mm 1 m/s 746 mmHg 90%
    07:00 +14°C° 0 mm 1 m/s 746 mmHg 81%
    08:00 +16°C° 0 mm 1 m/s 746 mmHg 73%
    09:00 +19°C° 0 mm 1 m/s 746 mmHg 65%
    10:00 +20°C° 0 mm 1 m/s 746 mmHg 60%
    11:00 +21°C° 0 mm 1 m/s 746 mmHg 56%
    12:00 +21°C° 0 mm 2 m/s 746 mmHg 51%
    13:00 +21°C° 0 mm 2 m/s 745 mmHg 51%
    14:00 +21°C° 0 mm 2 m/s 745 mmHg 51%
    15:00 +23°C° 0 mm 2 m/s 745 mmHg 51%
    16:00 +21°C° 0 mm 2 m/s 745 mmHg 56%
    17:00 +20°C° 0 mm 2 m/s 744 mmHg 61%
    18:00 +20°C° 0 mm 2 m/s 744 mmHg 67%
    19:00 +19°C° 0 mm 2 m/s 744 mmHg 70%
    20:00 +17°C° 0 mm 2 m/s 744 mmHg 74%
    21:00 +16°C° 0 mm 2 m/s 744 mmHg 78%
    22:00 +15°C° 0.6 mm 2 m/s 743 mmHg 83%
    23:00 +15°C° 0.6 mm 2 m/s 743 mmHg 89%
    Mostrar mais